DW4691 Weather Reports


time (UTC)temp
F
wind
direction
speed
knots
gust
knots
rain 1hr
in
rain 24hr
in
rain mn
in
humidity
%
barometer
mb
20260906194546 85 0 0.0 0.0 0.00 0.00 0.00 79 1012.8
20260906193056 85 0 0.0 0.9 0.00 0.00 0.00 79 1013.1
20260906191556 85 0 0.0 1.7 0.00 0.00 0.00 78 1013.3
20260906190050 86 0 0.0 0.0 0.00 0.00 0.00 78 1013.6
20260906184557 85 0 0.0 1.7 0.00 0.00 0.00 78 1013.7
20260906183114 85 0 0.0 0.9 0.00 0.00 0.00 77 1013.9
20260906181557 85 0 0.0 0.9 0.00 0.00 0.00 81 1013.9
20260906180112 86 0 0.0 0.0 0.00 0.00 0.00 79 1013.9
20260906174558 85 0 0.0 0.0 0.00 0.00 0.00 79 1013.8
20260906173052 84 0 0.0 0.0 0.00 0.00 0.00 80 1014.1
20260906171551 84 0 0.0 0.0 0.00 0.00 0.00 78 1014.4
20260906170049 87 0 0.0 0.9 0.00 0.00 0.00 73 1014.4
20260906164555 91 0 0.0 0.9 0.00 0.00 0.00 70 1014.2
20260906163053 91 0 0.0 1.7 0.00 0.00 0.00 69 1014.3
20260906161604 90 0 0.0 0.0 0.00 0.00 0.00 70 1014.2
20260906160100 88 0 0.0 0.0 0.00 0.00 0.00 76 1014.0
20260906154555 87 0 0.0 0.0 0.00 0.00 0.00 81 1014.2
20260906153057 85 0 0.0 0.0 0.00 0.00 0.00 85 1014.3
20260906151601 84 0 0.0 0.0 0.00 0.00 0.00 86 1014.3
20260906144602 82 0 0.0 0.0 0.00 0.00 0.00 89 1014.3
20260906143054 82 0 0.0 0.0 0.00 0.00 0.00 90 1014.2
20260906141551 81 0 0.0 0.0 0.00 0.00 0.00 91 1014.2
20260906140057 80 0 0.0 0.0 0.00 0.00 0.00 92 1014.1
20260906134556 79 0 0.0 0.0 0.00 0.00 0.00 93 1014.1
20260906133102 78 0 0.0 0.0 0.00 0.00 0.00 93 1014.0
20260906131552 78 0 0.0 0.0 0.00 0.00 0.00 93 1013.8
20260906130100 77 0 0.0 0.0 0.00 0.00 0.00 93 1013.7
20260906124601 77 0 0.0 0.0 0.00 0.00 0.00 92 1013.5
20260906123057 77 0 0.0 0.0 0.00 0.00 0.00 92 1013.3
20260906121557 77 0 0.0 0.0 0.00 0.00 0.00 92 1013.1
20260906120054 77 0 0.0 0.0 0.00 0.00 0.00 92 1012.9
20260906114623 77 0 0.0 0.0 0.00 0.00 0.00 92 1012.8
20260906113059 77 0 0.0 0.0 0.00 0.00 0.00 92 1012.6
20260906111555 77 0 0.0 0.0 0.00 0.00 0.00 92 1012.6
20260906110053 77 0 0.0 0.0 0.00 0.00 0.00 92 1012.4
20260906104600 77 0 0.0 0.0 0.00 0.00 0.00 91 1012.6
20260906103055 78 0 0.0 0.0 0.00 0.00 0.00 91 1012.4
20260906101553 78 0 0.0 0.0 0.00 0.00 0.00 91 1012.2
20260906100052 78 0 0.0 0.0 0.00 0.00 0.00 91 1012.0
20260906094548 78 0 0.0 0.0 0.00 0.00 0.00 91 1012.2
20260906093056 78 0 0.0 0.0 0.00 0.00 0.00 91 1012.2
20260906091551 78 0 0.0 0.0 0.00 0.00 0.00 91 1012.1
20260906090049 78 0 0.0 0.0 0.00 0.00 0.00 91 1011.9
20260906084554 78 0 0.0 0.0 0.00 0.00 0.00 91 1011.9
20260906083056 78 0 0.0 0.0 0.00 0.00 0.00 91 1012.0
20260906081557 78 0 0.0 0.0 0.00 0.00 0.00 91 1012.0
20260906080052 78 0 0.0 0.0 0.00 0.00 0.00 91 1012.0
20260906074612 78 0 0.0 0.0 0.00 0.00 0.00 91 1012.1
20260906073054 78 0 0.0 0.0 0.00 0.00 0.00 91 1012.2
20260906071555 78 0 0.0 0.0 0.00 0.00 0.00 91 1012.3
20260906070052 78 0 0.0 0.0 0.00 0.00 0.00 91 1012.3
20260906064556 78 0 0.0 0.0 0.00 0.00 0.00 91 1012.3
20260906063055 78 0 0.0 0.0 0.00 0.00 0.00 91 1012.4
20260906061602 78 0 0.0 0.0 0.00 0.00 0.00 91 1012.4
20260906060052 78 0 0.0 0.0 0.00 0.00 0.00 91 1012.3
20260906054558 78 0 0.0 0.0 0.00 0.00 0.00 91 1012.5
20260906053054 78 0 0.0 0.0 0.00 0.00 0.00 91 1012.5
20260906051601 78 0 0.0 0.0 0.00 0.00 0.00 91 1012.5
20260906050105 78 0 0.0 0.0 0.00 0.00 0.00 91 1012.5
20260906044555 78 0 0.0 0.0 0.00 0.00 0.00 90 1012.5
20260906043053 78 0 0.0 0.0 0.00 0.00 0.00 90 1012.5
20260906041552 78 0 0.0 0.0 0.00 0.00 0.00 90 1012.6
20260906040050 78 0 0.0 0.0 0.00 0.00 0.00 90 1012.6
20260906034555 78 0 0.0 0.0 0.00 0.00 0.00 90 1012.7
20260906033053 78 0 0.0 0.0 0.00 0.00 0.00 90 1012.7
20260906031605 79 0 0.0 0.0 0.00 0.00 0.00 89 1012.7
20260906030058 79 0 0.0 0.0 0.00 0.00 0.00 89 1012.5
20260906024557 79 0 0.0 0.0 0.00 0.00 0.00 89 1012.4
20260906023105 79 0 0.0 0.0 0.00 0.00 0.00 89 1012.2
20260906021550 80 0 0.0 0.0 0.00 0.00 0.00 89 1012.0
20260906020106 80 0 0.0 0.0 0.00 0.00 0.00 88 1011.9
20260906014554 80 0 0.0 0.0 0.00 0.00 0.00 88 1011.7
20260906013054 80 0 0.0 0.0 0.00 0.00 0.00 88 1011.6
20260906011553 80 0 0.0 0.0 0.00 0.00 0.00 88 1011.3
20260906010054 81 0 0.0 0.0 0.00 0.00 0.00 87 1011.2
20260906004550 81 0 0.0 0.0 0.00 0.00 0.00 87 1011.5
20260906003054 81 0 0.0 0.0 0.00 0.00 0.00 87 1011.7
20260906001552 81 0 0.0 0.0 0.00 0.00 0.00 85 1012.0
20260906000053 82 0 0.0 0.0 0.00 0.00 0.00 84 1012.1
20260905234558 82 0 0.0 0.0 0.00 0.00 0.00 82 1012.0
20260905233053 82 0 0.0 0.0 0.00 0.00 0.00 82 1012.1
20260905231556 82 0 0.0 0.0 0.00 0.00 0.00 82 1012.2
20260905230055 82 0 0.0 0.0 0.00 0.00 0.00 82 1012.0
20260905224605 82 0 0.0 0.0 0.00 0.00 0.00 80 1012.0
20260905223055 84 0 0.0 0.9 0.00 0.00 0.00 78 1011.7
20260905221601 87 0 0.0 1.7 0.00 0.00 0.00 71 1011.6
20260905220104 91 0 0.0 5.2 0.00 0.00 0.00 65 1011.6
20260905214559 94 0 0.0 2.6 0.00 0.00 0.00 62 1011.3
20260905213106 95 0 0.0 0.0 0.00 0.00 0.00 57 1011.1
20260905211612 95 0 0.0 0.0 0.00 0.00 0.00 57 1011.3
20260905210054 95 0 0.0 0.0 0.00 0.00 0.00 58 1011.2
20260905204557 96 0 0.0 0.0 0.00 0.00 0.00 57 1011.2
20260905203117 96 0 0.0 0.0 0.00 0.00 0.00 55 1011.4
20260905201558 96 0 0.0 1.7 0.00 0.00 0.00 55 1011.6
20260905200058 96 0 0.0 2.6 0.00 0.00 0.00 56 1011.9